This is the latest recevied weather packets stored in our database for station/object K0CVS. If no packets are shown the sender has not sent any weather packets the latest 10 day(s).
| Time | Temp. | Humidity | Pressure | Rain* | Wind** | Luminosity | Snow |
|---|---|---|---|---|---|---|---|
| 1778276950 | 16.11° C | 86% | 1008.8 hPa | 0 mm | - | 47 W/m² | - |
| 1778276648 | 16.11° C | 86% | 1008.8 hPa | 0 mm | - | 53 W/m² | - |
| 1778276343 | 16.11° C | 85% | 1008.9 hPa | 0 mm | - | 48 W/m² | - |
| 1778276041 | 16.11° C | 84% | 1008.9 hPa | 0 mm | - | 47 W/m² | - |
| 1778275736 | 16.67° C | 84% | 1009.1 hPa | 0 mm | - | 44 W/m² | - |
| 1778275433 | 16.67° C | 83% | 1009 hPa | 0 mm | - | 73 W/m² | - |
| 1778275129 | 16.67° C | 82% | 1009.5 hPa | 0 mm | - | 61 W/m² | - |
| 1778274825 | 16.67° C | 82% | 1009.4 hPa | 0 mm | - | 34 W/m² | - |
| 1778274523 | 17.22° C | 80% | 1009.1 hPa | 0 mm | - | 29 W/m² | - |
| 1778274219 | 17.22° C | 79% | 1008.8 hPa | 0 mm | - | 43 W/m² | - |
| 1778273916 | 17.22° C | 77% | 1009.1 hPa | 0 mm | - | 58 W/m² | - |
| 1778273612 | 17.78° C | 75% | 1009.1 hPa | 0 mm | - | 53 W/m² | - |
| 1778273308 | 17.78° C | 73% | 1009.4 hPa | 0 mm | - | 48 W/m² | - |
| 1778273006 | 17.78° C | 72% | 1009.2 hPa | 0 mm | - | 52 W/m² | - |
| 1778272701 | 18.33° C | 70% | 1009.3 hPa | 1.27 mm | - | 31 W/m² | - |
| 1778272397 | 18.89° C | 66% | 1009.3 hPa | 1.27 mm | - | 43 W/m² | - |
| 1778272093 | 18.89° C | 66% | 1009 hPa | 0 mm | - | 59 W/m² | - |
| 1778271791 | 19.44° C | 67% | 1009.4 hPa | 0 mm | - | 76 W/m² | - |
| 1778271488 | 19.44° C | 68% | 1009.3 hPa | 0 mm | - | 97 W/m² | - |
| 1778271184 | 18.89° C | 68% | 1009.4 hPa | 0 mm | - | 151 W/m² | - |
| 1778270881 | 18.33° C | 70% | 1009.6 hPa | 0 mm | - | 237 W/m² | - |
| 1778270577 | 18.33° C | 69% | 1009 hPa | 0 mm | - | 67 W/m² | - |
| 1778270273 | 18.33° C | 69% | 1008.6 hPa | 0 mm | - | 47 W/m² | - |
| 1778269970 | 18.33° C | 69% | 1008.4 hPa | 0 mm | - | 66 W/m² | - |
| 1778269666 | 18.89° C | 68% | 1008.5 hPa | 0 mm | - | 84 W/m² | - |
* Rain latest hour (hover to see other rain measurements)
** Current wind speed in m/s (hover to see current wind gust speed)